Location: Toronto
(43.6672°N, 79.4170°W)
Time: 01:52:24
(UTC-05:00)

ISS - All Passes

Search period start: 17 January 2017 00:00
Search period end: 27 January 2017 00:00
Orbit: 400 x 410 km, 51.6° (Epoch: 17 January)

Date Brightness Start Highest point End Pass type
(mag) Time Alt. Az. Time Alt. Az. Time Alt. Az.
17 Jan - 01:12:15 10° W 01:15:20 40° NNW 01:18:27 10° NE night (unlit)
17 Jan - 02:49:57 10° NW 02:52:25 20° N 02:54:55 10° NE night (unlit)
17 Jan - 04:26:49 10° NW 04:29:39 27° NNE 04:32:29 10° ENE visible
17 Jan - 06:03:07 10° WNW 06:06:22 70° SW 06:09:35 10° SE visible
17 Jan - 22:44:40 10° S 22:46:54 17° SE 22:49:09 10° E night (unlit)
18 Jan - 00:19:51 10° WSW 00:23:05 64° NNW 00:26:18 10° NE night (unlit)
18 Jan - 01:57:23 10° WNW 02:00:01 22° N 02:02:38 10° NE night (unlit)
18 Jan - 03:34:37 10° NW 03:37:15 22° N 03:39:53 10° ENE night (unlit)
18 Jan - 05:10:55 10° NW 05:14:10 67° NNE 05:17:24 10° ESE visible
18 Jan - 06:48:09 10° W 06:50:19 17° SW 06:52:29 10° S visible
18 Jan - 23:27:37 10° SW 23:30:52 73° SE 23:34:06 10° ENE night (unlit)
19 Jan - 01:04:46 10° WNW 01:07:36 26° NNW 01:10:25 10° NE night (unlit)
19 Jan - 02:42:19 10° NW 02:44:49 20° N 02:47:18 10° NE night (unlit)
19 Jan - 04:18:46 10° NW 04:21:53 41° NNE 04:24:59 10° E visible
19 Jan - 05:55:24 10° WNW 05:58:18 30° SW 06:01:10 10° SSE visible
19 Jan - 22:35:39 10° SSW 22:38:43 39° SE 22:41:47 10° ENE night (unlit)
20 Jan - 00:12:11 10° W 00:15:13 35° NNW 00:18:15 10° NE night (unlit)
20 Jan - 01:49:53 10° NW 01:52:20 19° N 01:54:49 10° NE night (unlit)
20 Jan - 03:26:37 10° NW 03:29:32 29° NNE 03:32:26 10° E night (unlit)
20 Jan - 05:02:59 10° WNW 05:06:10 55° SW 05:09:21 10° SE visible
20 Jan - 21:44:05 10° S 21:46:37 21° SE 21:49:11 10° E night (unlit)
20 Jan - 23:19:41 10° WSW 23:22:53 53° NNW 23:26:06 10° NE night (unlit)
21 Jan - 00:57:18 10° WNW 00:59:53 21° N 01:02:27 10° NE night (unlit)
21 Jan - 02:34:24 10° NW 02:37:07 23° NNE 02:39:49 10° ENE night (unlit)
21 Jan - 04:10:42 10° WNW 04:13:57 81° NNE 04:17:12 10° ESE night (unlit)
21 Jan - 05:48:21 10° W 05:50:01 13° SW 05:51:41 10° SSW visible
21 Jan - 20:53:19 10° SSE 20:54:36 12° SE 20:55:53 10° ESE night (unlit)
21 Jan - 22:27:21 10° WSW 22:30:37 89° SSE 22:33:53 10° ENE night (unlit)
22 Jan - 00:04:40 10° WNW 00:07:25 24° NNW 00:10:10 10° NE night (unlit)
22 Jan - 01:42:06 10° NW 01:44:39 20° N 01:47:11 10° ENE night (unlit)
22 Jan - 03:18:29 10° NW 03:21:40 48° NNE 03:24:49 10° ESE night (unlit)
22 Jan - 04:55:17 10° W 04:57:58 24° SW 05:00:40 10° SSE visible
22 Jan - 21:35:15 10° SW 21:38:23 48° SE 21:41:34 10° ENE night (unlit)
22 Jan - 23:12:01 10° W 23:14:59 31° NNW 23:17:57 10° NE night (unlit)
23 Jan - 00:49:41 10° NW 00:52:09 19° N 00:54:37 10° NE night (unlit)
23 Jan - 02:26:18 10° NW 02:29:17 33° NNE 02:32:17 10° E night (unlit)
23 Jan - 04:02:44 10° WNW 04:05:51 44° SW 04:08:57 10° SE night (unlit)
23 Jan - 20:43:27 10° SSW 20:46:15 26° SE 20:49:02 10° ENE night (unlit)
23 Jan - 22:19:26 10° W 22:22:36 45° NNW 22:25:45 10° NE night (unlit)
23 Jan - 23:57:06 10° WNW 23:59:38 20° N 00:02:09 10° NE night (unlit)
24 Jan - 01:34:05 10° NW 01:36:51 25° NNE 01:39:37 10° ENE night (unlit)
24 Jan - 03:10:22 10° WNW 03:13:38 83° SSW 03:16:52 10° SE night (unlit)
24 Jan - 04:48:47 10° WSW 04:49:36 11° SW 04:50:25 10° SW night (unlit)
24 Jan - 19:52:14 10° SSE 19:54:09 15° SE 19:56:04 10° E night (unlit)
24 Jan - 21:27:00 10° WSW 21:30:15 75° NNW 21:33:31 10° NE night (unlit)
24 Jan - 23:04:26 10° WNW 23:07:07 23° NNW 23:09:48 10° NE night (unlit)
25 Jan - 00:41:46 10° NW 00:44:22 21° N 00:46:57 10° ENE night (unlit)
25 Jan - 02:18:06 10° NW 02:21:19 57° NNE 02:24:31 10° ESE night (unlit)
25 Jan - 03:55:07 10° W 03:57:32 20° SW 03:59:58 10° S night (unlit)
25 Jan - 20:34:45 10° SW 20:37:59 61° SE 20:41:12 10° ENE night (unlit)
25 Jan - 22:11:45 10° W 22:14:38 28° NNW 22:17:32 10° NE night (unlit)
25 Jan - 23:49:21 10° NW 23:51:49 20° N 23:54:19 10° NE night (unlit)
26 Jan - 01:25:52 10° NW 01:28:56 37° NNE 01:31:59 10° E night (unlit)
26 Jan - 03:02:23 10° WNW 03:05:24 35° SW 03:08:24 10° SSE night (unlit)
26 Jan - 19:42:48 10° SSW 19:45:46 32° SE 19:48:43 10° ENE visible
26 Jan - 21:19:05 10° W 21:22:11 39° NNW 21:25:18 10° NE night (unlit)
26 Jan - 22:56:47 10° NW 22:59:17 20° N 23:01:46 10° NE night (unlit)
